User: anonymous   Login
Location: Chevoux
(46.3801°N, 4.9476°E)
Time: 21:16:46
(UTC+00:00)
Language:

Cosmos 468 - Orbit

View from above orbital plane
View from above orbital plane
View from above satellite
View from above satellite

Ground track
Ground track

The orbit data is extracted from the following two-line orbital elements,

1 05705U 71114A   21104.49213205  .00000018  00000-0  15468-4 0  9992
2 05705  74.0165 115.3100 0016521 257.0547 102.8761 14.35737573579975
Epoch (UTC): 14 April 2021 11:48:40
Eccentricity: 0.0016521
inclination: 74.0165°
perigee height: 761 km
apogee height: 784 km
right ascension of ascending node: 115.3100°
argument of perigee: 257.0547°
revolutions per day: 14.35737573
mean anomaly at epoch: 102.8761°
orbit number at epoch: 57997

The dashed part of the orbit path shows where the satellite is in the earth's shadow,  

DLR